^^
Station Historical Data
Daily Summary for June 13, 2017 Units:  English    Metric   Both
« Previous Day
Next Day »
Daily Weekly Monthly Yearly Custom
  High: Low: Average:
Temperature: 95.2 °F 70.5 °F 83.1 °F
Dew Point: 70.5 °F 62.1 °F 66 °F
Humidity: 80 % 34 % 59 %
Wind Speed: 7.9 mph 0.0 mph 1.1 mph
Wind Gust: 15.0 mph - -
Wind:- - West
Pressure: 29.98 in 29.84 in -
Precipitation: 0.00 in    
Historical Graphs
 
 
Tabular Data for June 13, 2017
Time Temperature Dew Point Pressure Wind Wind Speed Wind Gust Humidity Rainfall Rate (Hourly) solar Conditions
00:03 77.3 °F 64.6 °F 29.96 in SW 1.8 mph 3.5 mph 65 % 0.00 in 0.0 W/m2 CLR
00:08 77.3 °F 64.6 °F 29.96 in Calm   5.8 mph 65 % 0.00 in 0.0 W/m2 CLR
00:13 77.3 °F 64.6 °F 29.96 in SW 1.0 mph 5.8 mph 65 % 0.00 in 0.0 W/m2 CLR
00:18 77.2 °F 65.0 °F 29.96 in Calm   3.5 mph 66 % 0.00 in 0.0 W/m2 CLR
00:23 77.1 °F 64.9 °F 29.96 in Calm   3.5 mph 66 % 0.00 in 0.0 W/m2 CLR
00:28 77.0 °F 64.8 °F 29.96 in SW 0.1 mph 3.5 mph 66 % 0.00 in 0.0 W/m2 CLR
00:29 77.0 °F 64.8 °F 29.96 in SW 0.9 mph 3.5 mph 66 % 0.00 in 0.0 W/m2 CLR
00:34 76.9 °F 65.1 °F 29.96 in WSW 0.1 mph 3.5 mph 67 % 0.00 in 0.0 W/m2 CLR
00:39 76.7 °F 64.9 °F 29.96 in Calm   3.5 mph 67 % 0.00 in 0.0 W/m2 CLR
00:44 76.5 °F 64.7 °F 29.96 in SW 0.9 mph 3.5 mph 67 % 0.00 in 0.0 W/m2 CLR
00:49 76.4 °F 64.6 °F 29.96 in SSW 0.7 mph 3.5 mph 67 % 0.00 in 0.0 W/m2 CLR
00:54 76.2 °F 64.9 °F 29.96 in Calm   4.6 mph 68 % 0.00 in 0.0 W/m2 CLR
00:59 76.1 °F 64.8 °F 29.97 in Calm   4.6 mph 68 % 0.00 in 0.0 W/m2 CLR
01:04 76.0 °F 64.7 °F 29.97 in WSW 0.5 mph 4.6 mph 68 % 0.00 in 0.0 W/m2 CLR
01:09 75.9 °F 65.0 °F 29.97 in Calm   4.6 mph 69 % 0.00 in 0.0 W/m2 CLR
01:14 75.8 °F 64.9 °F 29.96 in SW 2.2 mph 4.6 mph 69 % 0.00 in 0.0 W/m2 CLR
01:19 75.8 °F 64.9 °F 29.97 in Calm   4.6 mph 69 % 0.00 in 0.0 W/m2 CLR
01:24 75.7 °F 64.8 °F 29.97 in SW 0.1 mph 4.6 mph 69 % 0.00 in 0.0 W/m2 CLR
01:29 75.5 °F 64.6 °F 29.97 in Calm   1.2 mph 69 % 0.00 in 0.0 W/m2 CLR
01:34 75.3 °F 64.8 °F 29.97 in SW 0.1 mph 2.3 mph 70 % 0.00 in 0.0 W/m2 CLR
01:39 75.2 °F 64.7 °F 29.97 in Calm   2.3 mph 70 % 0.00 in 0.0 W/m2 CLR
01:44 75.1 °F 64.6 °F 29.97 in Calm   1.2 mph 70 % 0.00 in 0.0 W/m2 CLR
01:49 75.0 °F 64.5 °F 29.97 in Calm   1.2 mph 70 % 0.00 in 0.0 W/m2 CLR
01:54 74.9 °F 64.9 °F 29.97 in Calm   1.2 mph 71 % 0.00 in 0.0 W/m2 CLR
01:59 74.8 °F 64.8 °F 29.97 in Calm     71 % 0.00 in 0.0 W/m2 CLR
02:04 74.7 °F 64.7 °F 29.97 in Calm   3.5 mph 71 % 0.00 in 0.0 W/m2 FEW
02:09 74.6 °F 64.6 °F 29.97 in Calm   3.5 mph 71 % 0.00 in 0.0 W/m2 FEW
02:14 74.6 °F 64.6 °F 29.97 in Calm     71 % 0.00 in 0.0 W/m2 FEW
02:19 74.6 °F 64.6 °F 29.97 in Calm     71 % 0.00 in 0.0 W/m2 FEW
02:24 74.5 °F 64.5 °F 29.97 in SW 0.1 mph 2.3 mph 71 % 0.00 in 0.0 W/m2 FEW
02:29 74.4 °F 64.8 °F 29.97 in Calm   2.3 mph 72 % 0.00 in 0.0 W/m2 FEW
02:34 74.5 °F 64.9 °F 29.97 in Calm   2.3 mph 72 % 0.00 in 0.0 W/m2 FEW
02:39 74.5 °F 64.5 °F 29.97 in Calm   1.2 mph 71 % 0.00 in 0.0 W/m2 FEW
02:44 74.4 °F 64.8 °F 29.97 in Calm     72 % 0.00 in 0.0 W/m2 FEW
02:49 74.3 °F 64.7 °F 29.97 in Calm   2.3 mph 72 % 0.00 in 0.0 W/m2 FEW
02:54 74.1 °F 64.5 °F 29.97 in West 0.4 mph 3.5 mph 72 % 0.00 in 0.0 W/m2 FEW
02:59 74.0 °F 64.4 °F 29.97 in Calm   3.5 mph 72 % 0.00 in 0.0 W/m2 FEW
03:04 74.0 °F 64.4 °F 29.97 in Calm   3.5 mph 72 % 0.00 in 0.0 W/m2 FEW
03:09 73.9 °F 64.3 °F 29.97 in West 0.1 mph 1.2 mph 72 % 0.00 in 0.0 W/m2 FEW
03:14 73.8 °F 64.6 °F 29.97 in West 0.1 mph 1.2 mph 73 % 0.00 in 0.0 W/m2 FEW
03:19 73.6 °F 64.4 °F 29.97 in Calm   3.5 mph 73 % 0.00 in 0.0 W/m2 FEW
03:24 73.4 °F 64.6 °F 29.97 in Calm   3.5 mph 74 % 0.00 in 0.0 W/m2 FEW
03:29 73.3 °F 64.5 °F 29.97 in Calm     74 % 0.00 in 0.0 W/m2 FEW
03:34 73.0 °F 64.2 °F 29.97 in Calm     74 % 0.00 in 0.0 W/m2 FEW
03:39 72.9 °F 64.5 °F 29.97 in Calm     75 % 0.00 in 0.0 W/m2 FEW
03:44 72.8 °F 64.4 °F 29.97 in Calm     75 % 0.00 in 0.0 W/m2 FEW
03:45 72.7 °F 64.3 °F 29.97 in Calm     75 % 0.00 in 0.0 W/m2 FEW
03:50 72.5 °F 64.5 °F 29.97 in Calm     76 % 0.00 in 0.0 W/m2 FEW
03:55 72.3 °F 64.3 °F 29.97 in Calm     76 % 0.00 in 0.0 W/m2 FEW
04:00 72.0 °F 64.4 °F 29.97 in Calm     77 % 0.00 in 0.0 W/m2 FEW
04:05 72.2 °F 64.6 °F 29.97 in Calm     77 % 0.00 in 0.0 W/m2 FEW
04:10 72.3 °F 64.7 °F 29.96 in Calm     77 % 0.00 in 0.0 W/m2 FEW
04:15 72.3 °F 64.7 °F 29.96 in Calm     77 % 0.00 in 0.0 W/m2 FEW
04:20 72.3 °F 64.7 °F 29.97 in Calm     77 % 0.00 in 0.0 W/m2 FEW
04:25 72.3 °F 64.3 °F 29.97 in Calm     76 % 0.00 in 0.0 W/m2 FEW
04:30 72.3 °F 64.7 °F 29.96 in Calm     77 % 0.00 in 0.0 W/m2 FEW
04:35 72.1 °F 64.5 °F 29.96 in Calm     77 % 0.00 in 0.0 W/m2 FEW
04:40 71.8 °F 64.2 °F 29.96 in Calm     77 % 0.00 in 0.0 W/m2 FEW
04:45 71.2 °F 64.0 °F 29.96 in Calm     78 % 0.00 in 0.0 W/m2 FEW
04:50 70.9 °F 64.1 °F 29.96 in Calm     79 % 0.00 in 0.0 W/m2 FEW
04:55 70.6 °F 64.1 °F 29.96 in Calm     80 % 0.00 in 0.0 W/m2 FEW
05:00 70.7 °F 64.2 °F 29.97 in Calm     80 % 0.00 in 0.0 W/m2 FEW
05:05 71.0 °F 64.5 °F 29.96 in Calm     80 % 0.00 in 0.0 W/m2 FEW
05:10 71.2 °F 64.4 °F 29.97 in Calm     79 % 0.00 in 0.0 W/m2 FEW
05:15 71.3 °F 64.4 °F 29.97 in Calm     79 % 0.00 in 0.0 W/m2 FEW
05:21 71.3 °F 64.4 °F 29.97 in Calm     79 % 0.00 in 0.0 W/m2 FEW
05:26 71.2 °F 64.0 °F 29.97 in Calm     78 % 0.00 in 0.0 W/m2 FEW
05:31 70.7 °F 63.9 °F 29.97 in Calm     79 % 0.00 in 0.0 W/m2 FEW
05:36 70.5 °F 64.0 °F 29.97 in Calm     80 % 0.00 in 0.0 W/m2 FEW
05:41 70.5 °F 64.0 °F 29.97 in Calm     80 % 0.00 in 5.0 W/m2 FEW
05:46 70.7 °F 64.2 °F 29.97 in Calm     80 % 0.00 in 7.0 W/m2 FEW
05:51 70.8 °F 64.3 °F 29.97 in Calm   1.2 mph 80 % 0.00 in 9.0 W/m2 FEW
05:56 70.8 °F 64.3 °F 29.97 in Calm   1.2 mph 80 % 0.00 in 11.0 W/m2 FEW
06:01 70.7 °F 63.9 °F 29.97 in Calm     79 % 0.00 in 12.0 W/m2 CLR
06:06 70.5 °F 64.0 °F 29.98 in Calm     80 % 0.00 in 16.0 W/m2 CLR
06:11 70.6 °F 64.1 °F 29.97 in Calm     80 % 0.00 in 19.0 W/m2 CLR
06:16 70.8 °F 64.3 °F 29.97 in Calm     80 % 0.00 in 21.0 W/m2 CLR
06:21 71.2 °F 64.4 °F 29.97 in Calm     79 % 0.00 in 23.0 W/m2 CLR
06:26 71.4 °F 64.5 °F 29.97 in Calm     79 % 0.00 in 25.0 W/m2 CLR
06:31 71.6 °F 64.7 °F 29.97 in Calm     79 % 0.00 in 26.0 W/m2 CLR
06:36 71.8 °F 64.6 °F 29.98 in Calm     78 % 0.00 in 32.0 W/m2 CLR
06:41 72.0 °F 64.8 °F 29.98 in West 1.2 mph 3.5 mph 78 % 0.00 in 32.0 W/m2 CLR
06:46 72.4 °F 64.8 °F 29.98 in West 0.8 mph 3.5 mph 77 % 0.00 in 33.0 W/m2 CLR
06:51 72.8 °F 65.2 °F 29.98 in West 1.5 mph 3.5 mph 77 % 0.00 in 35.0 W/m2 CLR
06:56 73.0 °F 65.0 °F 29.98 in Calm   4.6 mph 76 % 0.00 in 39.0 W/m2 CLR
07:01 73.3 °F 65.3 °F 29.98 in Calm   4.6 mph 76 % 0.00 in 40.0 W/m2 CLR
07:06 73.5 °F 65.1 °F 29.98 in WSW 0.8 mph 3.5 mph 75 % 0.00 in 44.0 W/m2 CLR
07:11 73.7 °F 65.3 °F 29.98 in Calm   5.8 mph 75 % 0.00 in 42.0 W/m2 CLR
07:16 73.9 °F 65.1 °F 29.98 in West 1.5 mph 5.8 mph 74 % 0.00 in 44.0 W/m2 CLR
07:21 74.2 °F 65.4 °F 29.98 in WSW 1.6 mph 5.8 mph 74 % 0.00 in 46.0 W/m2 CLR
07:26 74.3 °F 65.5 °F 29.98 in West 0.5 mph 5.8 mph 74 % 0.00 in 47.0 W/m2 CLR
07:31 74.4 °F 65.2 °F 29.98 in Calm   5.8 mph 73 % 0.00 in 49.0 W/m2 CLR
07:36 74.5 °F 65.3 °F 29.98 in Calm   5.8 mph 73 % 0.00 in 51.0 W/m2 CLR
07:41 74.7 °F 65.5 °F 29.98 in WSW 0.9 mph 8.1 mph 73 % 0.00 in 54.0 W/m2 CLR
07:46 75.1 °F 65.9 °F 29.98 in WSW 1.2 mph 8.1 mph 73 % 0.00 in 54.0 W/m2 CLR
07:51 75.2 °F 65.6 °F 29.98 in SW 0.5 mph 8.1 mph 72 % 0.00 in 56.0 W/m2 CLR
07:56 75.5 °F 65.8 °F 29.98 in SW 0.6 mph 8.1 mph 72 % 0.00 in 58.0 W/m2 CLR
08:01 75.6 °F 65.5 °F 29.98 in SSW 3.8 mph 6.9 mph 71 % 0.00 in 62.0 W/m2 CLR
08:06 75.7 °F 65.6 °F 29.98 in SW 2.3 mph 8.1 mph 71 % 0.00 in 63.0 W/m2 CLR
08:11 75.9 °F 65.8 °F 29.98 in West 0.1 mph 8.1 mph 71 % 0.00 in 63.0 W/m2 CLR
08:16 76.1 °F 66.0 °F 29.98 in WNW 0.2 mph 6.9 mph 71 % 0.00 in 63.0 W/m2 CLR
08:21 76.4 °F 65.9 °F 29.98 in SW 2.7 mph 6.9 mph 70 % 0.00 in 70.0 W/m2 CLR
08:26 76.7 °F 66.2 °F 29.98 in WNW 2.3 mph 6.9 mph 70 % 0.00 in 67.0 W/m2 CLR
08:31 77.2 °F 66.2 °F 29.98 in Calm   6.9 mph 69 % 0.00 in 69.0 W/m2 CLR
08:36 77.5 °F 66.1 °F 29.98 in West 1.5 mph 6.9 mph 68 % 0.00 in 70.0 W/m2 CLR
08:41 77.9 °F 66.5 °F 29.98 in West 2.7 mph 5.8 mph 68 % 0.00 in 74.0 W/m2 CLR
08:46 78.3 °F 66.9 °F 29.97 in Calm   5.8 mph 68 % 0.00 in 76.0 W/m2 CLR
08:51 78.5 °F 66.6 °F 29.97 in SW 0.8 mph 5.8 mph 67 % 0.00 in 77.0 W/m2 CLR
08:56 79.0 °F 67.1 °F 29.97 in West 0.1 mph 3.5 mph 67 % 0.00 in 97.0 W/m2 CLR
09:01 79.0 °F 66.7 °F 29.97 in West 3.4 mph 8.1 mph 66 % 0.00 in 90.0 W/m2 CLR
09:06 79.3 °F 67.0 °F 29.97 in WSW 3.0 mph 8.1 mph 66 % 0.00 in 142.0 W/m2 CLR
09:12 79.6 °F 67.2 °F 29.97 in SW 2.0 mph 8.1 mph 66 % 0.00 in 323.0 W/m2 CLR
09:17 80.0 °F 67.2 °F 29.97 in West 2.4 mph 8.1 mph 65 % 0.00 in 559.0 W/m2 CLR
09:22 80.5 °F 67.6 °F 29.97 in West 0.8 mph 8.1 mph 65 % 0.00 in 584.0 W/m2 CLR
09:27 80.7 °F 67.8 °F 29.97 in SSW 2.6 mph 8.1 mph 65 % 0.00 in 582.0 W/m2 CLR
09:32 81.0 °F 68.1 °F 29.97 in WSW 1.6 mph 5.8 mph 65 % 0.00 in 613.0 W/m2 CLR
09:37 81.8 °F 68.4 °F 29.97 in WSW 0.1 mph 6.9 mph 64 % 0.00 in 612.0 W/m2 CLR
09:42 82.3 °F 68.4 °F 29.96 in Calm   6.9 mph 63 % 0.00 in 629.0 W/m2 CLR
09:47 82.7 °F 68.8 °F 29.97 in WSW 0.1 mph 4.6 mph 63 % 0.00 in 642.0 W/m2 CLR
09:52 82.7 °F 68.8 °F 29.96 in West 1.3 mph 3.5 mph 63 % 0.00 in 661.0 W/m2 CLR
09:57 83.0 °F 69.1 °F 29.96 in WSW 1.2 mph 5.8 mph 63 % 0.00 in 689.0 W/m2 CLR
10:02 83.5 °F 69.1 °F 29.96 in West 2.8 mph 8.1 mph 62 % 0.00 in 701.0 W/m2 CLR
10:07 83.8 °F 68.9 °F 29.96 in WSW 1.7 mph 8.1 mph 61 % 0.00 in 714.0 W/m2 CLR
10:12 84.1 °F 69.2 °F 29.96 in SSW 3.6 mph 8.1 mph 61 % 0.00 in 726.0 W/m2 CLR
10:17 84.3 °F 69.4 °F 29.96 in SW 2.4 mph 8.1 mph 61 % 0.00 in 744.0 W/m2 CLR
10:22 84.7 °F 69.8 °F 29.95 in SW 2.1 mph 8.1 mph 61 % 0.00 in 758.0 W/m2 CLR
10:27 84.7 °F 69.3 °F 29.95 in Calm   9.2 mph 60 % 0.00 in 765.0 W/m2 CLR
10:32 84.8 °F 69.4 °F 29.95 in SSW 5.1 mph 9.2 mph 60 % 0.00 in 777.0 W/m2 CLR
10:37 85.1 °F 69.7 °F 29.95 in West 0.8 mph 6.9 mph 60 % 0.00 in 788.0 W/m2 CLR
10:42 85.4 °F 69.9 °F 29.95 in WSW 4.4 mph 6.9 mph 60 % 0.00 in 786.0 W/m2 CLR
10:47 85.5 °F 69.5 °F 29.95 in SW 3.1 mph 11.5 mph 59 % 0.00 in 726.0 W/m2 CLR
10:52 85.6 °F 69.6 °F 29.95 in WNW 1.7 mph 11.5 mph 59 % 0.00 in 795.0 W/m2 CLR
10:57 86.1 °F 70.1 °F 29.95 in SW 3.3 mph 8.1 mph 59 % 0.00 in 828.0 W/m2 CLR
11:02 86.2 °F 69.7 °F 29.95 in SSW 4.3 mph 9.2 mph 58 % 0.00 in 833.0 W/m2 CLR
11:07 86.7 °F 70.2 °F 29.95 in WNW 1.7 mph 9.2 mph 58 % 0.00 in 831.0 W/m2 CLR
11:12 88.2 °F 69.5 °F 29.95 in SW 2.1 mph 8.1 mph 54 % 0.00 in 858.0 W/m2 CLR
11:17 87.6 °F 68.9 °F 29.95 in West 2.4 mph 13.8 mph 54 % 0.00 in 868.0 W/m2 CLR
11:22 87.4 °F 69.3 °F 29.95 in SW 3.3 mph 13.8 mph 55 % 0.00 in 874.0 W/m2 CLR
11:23 87.4 °F 69.3 °F 29.95 in SW 3.2 mph 13.8 mph 55 % 0.00 in 874.0 W/m2 CLR
11:28 87.5 °F 69.3 °F 29.94 in WSW 4.8 mph 11.5 mph 55 % 0.00 in 881.0 W/m2 CLR
11:33 88.0 °F 69.3 °F 29.94 in West 1.5 mph 11.5 mph 54 % 0.00 in 889.0 W/m2 CLR
11:38 88.8 °F 70.5 °F 29.94 in WSW 0.7 mph 8.1 mph 55 % 0.00 in 891.0 W/m2 CLR
11:43 88.9 °F 69.6 °F 29.94 in West 3.3 mph 8.1 mph 53 % 0.00 in 888.0 W/m2 CLR
11:48 88.8 °F 68.9 °F 29.94 in WSW 7.7 mph 13.8 mph 52 % 0.00 in 907.0 W/m2 CLR
11:53 88.9 °F 69.6 °F 29.94 in WSW 6.1 mph 13.8 mph 53 % 0.00 in 904.0 W/m2 CLR
11:58 88.9 °F 68.4 °F 29.93 in WSW 3.0 mph 11.5 mph 51 % 0.00 in 893.0 W/m2 CLR
11:59 88.8 °F 68.3 °F 29.93 in SW 2.0 mph 11.5 mph 51 % 0.00 in 916.0 W/m2 CLR
12:04 89.0 °F 68.5 °F 29.93 in WSW 4.8 mph 11.5 mph 51 % 0.00 in 921.0 W/m2 CLR
12:09 89.3 °F 69.4 °F 29.93 in NNW 1.7 mph 9.2 mph 52 % 0.00 in 911.0 W/m2 CLR
12:14 90.6 °F 68.8 °F 29.93 in WNW 2.9 mph 9.2 mph 49 % 0.00 in 954.0 W/m2 CLR
12:19 90.7 °F 67.7 °F 29.93 in Calm   11.5 mph 47 % 0.00 in 958.0 W/m2 CLR
12:24 90.5 °F 68.7 °F 29.93 in SSW 1.0 mph 11.5 mph 49 % 0.00 in 991.0 W/m2 CLR
12:29 90.4 °F 68.6 °F 29.93 in WNW 3.8 mph 10.4 mph 49 % 0.00 in 963.0 W/m2 CLR
12:34 90.7 °F 68.3 °F 29.93 in West 4.0 mph 10.4 mph 48 % 0.00 in 946.0 W/m2 CLR
12:39 90.7 °F 69.5 °F 29.93 in SSW 0.4 mph 10.4 mph 50 % 0.00 in 962.0 W/m2 CLR
12:44 90.5 °F 68.1 °F 29.92 in NW 5.1 mph 10.4 mph 48 % 0.00 in 990.0 W/m2 CLR
12:49 90.8 °F 67.8 °F 29.92 in SW 4.1 mph 12.7 mph 47 % 0.00 in 979.0 W/m2 CLR
12:54 91.0 °F 67.3 °F 29.92 in SW 3.7 mph 12.7 mph 46 % 0.00 in 997.0 W/m2 CLR
12:59 90.5 °F 66.3 °F 29.92 in NW 2.7 mph 10.4 mph 45 % 0.00 in 156.0 W/m2 CLR
13:04 90.9 °F 66.6 °F 29.92 in WNW 1.3 mph 10.4 mph 45 % 0.00 in 1051.0 W/m2 FEW
13:09 91.0 °F 66.7 °F 29.92 in WSW 2.0 mph 10.4 mph 45 % 0.00 in 1074.0 W/m2 FEW
13:14 91.3 °F 66.3 °F 29.92 in WSW 4.0 mph 10.4 mph 44 % 0.00 in 346.0 W/m2 FEW
13:19 91.9 °F 66.2 °F 29.92 in West 3.4 mph 10.4 mph 43 % 0.00 in 1141.0 W/m2 FEW
13:25 92.4 °F 65.3 °F 29.92 in WNW 2.0 mph 15.0 mph 41 % 0.00 in 1083.0 W/m2 FEW
13:30 92.9 °F 65.0 °F 29.91 in NW 0.9 mph 15.0 mph 40 % 0.00 in 965.0 W/m2 FEW
13:32 93.1 °F 65.9 °F 29.91 in WSW 0.6 mph 15.0 mph 41 % 0.00 in 1030.0 W/m2 FEW
13:37 93.5 °F 63.3 °F 29.91 in NW 3.7 mph 13.8 mph 37 % 0.00 in 1113.0 W/m2 FEW
13:42 93.5 °F 64.1 °F 29.91 in NW 4.1 mph 13.8 mph 38 % 0.00 in 1116.0 W/m2 FEW
13:47 93.1 °F 62.2 °F 29.91 in WSW 3.7 mph 13.8 mph 36 % 0.00 in 1086.0 W/m2 FEW
13:52 93.7 °F 63.5 °F 29.91 in WSW 1.4 mph 12.7 mph 37 % 0.00 in 998.0 W/m2 FEW
13:57 93.9 °F 63.7 °F 29.90 in WSW 7.5 mph 12.7 mph 37 % 0.00 in 963.0 W/m2 FEW
14:02 93.7 °F 65.0 °F 29.90 in WNW 6.8 mph 13.8 mph 39 % 0.00 in 930.0 W/m2 CLR
14:07 94.6 °F 65.1 °F 29.90 in WNW 4.9 mph 13.8 mph 38 % 0.00 in 918.0 W/m2 CLR
14:12 94.2 °F 64.7 °F 29.90 in SW 1.1 mph 13.8 mph 38 % 0.00 in 930.0 W/m2 CLR
14:17 93.7 °F 65.0 °F 29.89 in SSW 2.2 mph 11.5 mph 39 % 0.00 in 937.0 W/m2 CLR
14:22 94.3 °F 64.0 °F 29.89 in SW 3.2 mph 10.4 mph 37 % 0.00 in 949.0 W/m2 CLR
14:27 93.8 °F 63.6 °F 29.89 in NW 3.4 mph 12.7 mph 37 % 0.00 in 921.0 W/m2 CLR
14:32 93.5 °F 63.3 °F 29.89 in West 3.0 mph 12.7 mph 37 % 0.00 in 881.0 W/m2 CLR
14:38 92.8 °F 62.7 °F 29.89 in NW 3.0 mph 12.7 mph 37 % 0.00 in 865.0 W/m2 CLR
14:43 92.9 °F 62.8 °F 29.88 in West 5.8 mph 11.5 mph 37 % 0.00 in 854.0 W/m2 CLR
14:48 93.3 °F 63.1 °F 29.88 in West 3.3 mph 12.7 mph 37 % 0.00 in 874.0 W/m2 CLR
14:53 94.4 °F 63.3 °F 29.88 in WNW 5.7 mph 15.0 mph 36 % 0.00 in 882.0 W/m2 CLR
14:58 94.6 °F 62.7 °F 29.89 in NW 3.2 mph 15.0 mph 35 % 0.00 in 851.0 W/m2 CLR
15:03 94.8 °F 62.9 °F 29.88 in NW 3.6 mph 12.7 mph 35 % 0.00 in 844.0 W/m2 FEW
15:08 94.8 °F 62.1 °F 29.88 in WSW 1.9 mph 11.5 mph 34 % 0.00 in 830.0 W/m2 FEW
15:13 94.2 °F 62.4 °F 29.88 in West 2.9 mph 10.4 mph 35 % 0.00 in 826.0 W/m2 FEW
15:18 94.0 °F 63.8 °F 29.88 in West 2.3 mph 8.1 mph 37 % 0.00 in 812.0 W/m2 FEW
15:23 93.7 °F 63.5 °F 29.87 in NW 5.1 mph 8.1 mph 37 % 0.00 in 793.0 W/m2 FEW
15:28 95.2 °F 63.2 °F 29.87 in NNW 7.9 mph 11.5 mph 35 % 0.00 in 780.0 W/m2 FEW
15:33 94.8 °F 63.7 °F 29.87 in WSW 1.9 mph 11.5 mph 36 % 0.00 in 809.0 W/m2 FEW
15:38 93.9 °F 63.7 °F 29.87 in WSW 5.2 mph 11.5 mph 37 % 0.00 in 759.0 W/m2 FEW
15:43 94.0 °F 63.0 °F 29.86 in WSW 0.3 mph 11.5 mph 36 % 0.00 in 758.0 W/m2 FEW
15:48 94.2 °F 63.2 °F 29.86 in SSW 1.2 mph 11.5 mph 36 % 0.00 in 742.0 W/m2 FEW
15:53 94.6 °F 62.7 °F 29.86 in WNW 3.7 mph 11.5 mph 35 % 0.00 in 717.0 W/m2 FEW
15:58 94.2 °F 63.9 °F 29.86 in SSW 2.1 mph 11.5 mph 37 % 0.00 in 719.0 W/m2 FEW
16:03 94.1 °F 63.9 °F 29.86 in SW 1.4 mph 10.4 mph 37 % 0.00 in 663.0 W/m2 CLR
16:08 93.4 °F 62.5 °F 29.86 in Calm   9.2 mph 36 % 0.00 in 696.0 W/m2 CLR
16:13 93.7 °F 63.5 °F 29.85 in SW 0.4 mph 8.1 mph 37 % 0.00 in 671.0 W/m2 CLR
16:18 93.9 °F 63.7 °F 29.85 in NW 2.3 mph 11.5 mph 37 % 0.00 in 664.0 W/m2 CLR
16:23 94.7 °F 63.6 °F 29.85 in WSW 0.6 mph 11.5 mph 36 % 0.00 in 657.0 W/m2 CLR
16:29 94.0 °F 63.0 °F 29.85 in WSW 3.5 mph 11.5 mph 36 % 0.00 in 636.0 W/m2 CLR
16:34 94.1 °F 63.9 °F 29.84 in WNW 0.9 mph 8.1 mph 37 % 0.00 in 624.0 W/m2 CLR
16:39 94.4 °F 63.3 °F 29.84 in West 1.5 mph 8.1 mph 36 % 0.00 in 592.0 W/m2 CLR
16:44 94.2 °F 63.2 °F 29.84 in West 0.7 mph 9.2 mph 36 % 0.00 in 601.0 W/m2 CLR
16:49 93.3 °F 63.1 °F 29.84 in Calm   9.2 mph 37 % 0.00 in 587.0 W/m2 CLR
16:54 93.4 °F 64.0 °F 29.84 in SSW 0.6 mph 6.9 mph 38 % 0.00 in 566.0 W/m2 CLR
16:59 93.4 °F 64.0 °F 29.84 in SW 0.9 mph 6.9 mph 38 % 0.00 in 531.0 W/m2 CLR
17:04 92.6 °F 64.0 °F 29.84 in SW 0.4 mph 6.9 mph 39 % 0.00 in 538.0 W/m2 CLR
17:09 92.9 °F 64.3 °F 29.84 in South 2.2 mph 6.9 mph 39 % 0.00 in 545.0 W/m2 CLR
17:14 92.8 °F 64.2 °F 29.84 in West 0.2 mph 8.1 mph 39 % 0.00 in 517.0 W/m2 CLR
17:19 93.5 °F 64.8 °F 29.84 in SW 1.0 mph 8.1 mph 39 % 0.00 in 503.0 W/m2 CLR
17:24 93.7 °F 64.3 °F 29.84 in WNW 0.6 mph 6.9 mph 38 % 0.00 in 483.0 W/m2 CLR
17:29 93.8 °F 65.1 °F 29.84 in NW 0.1 mph 8.1 mph 39 % 0.00 in 499.0 W/m2 CLR
17:34 93.5 °F 64.8 °F 29.84 in WSW 2.2 mph 8.1 mph 39 % 0.00 in 404.0 W/m2 CLR
17:39 93.1 °F 64.5 °F 29.84 in West 0.6 mph 8.1 mph 39 % 0.00 in 149.0 W/m2 CLR
17:40 93.1 °F 64.4 °F 29.84 in West 1.0 mph 8.0 mph 39 % 0.00 in 155.0 W/m2 CLR
17:45 92.7 °F 64.8 °F 29.84 in West 1.6 mph 8.1 mph 40 % 0.00 in 425.0 W/m2 CLR
17:50 93.2 °F 65.3 °F 29.84 in NW 0.7 mph 8.1 mph 40 % 0.00 in 399.0 W/m2 CLR
17:55 93.2 °F 65.3 °F 29.84 in WSW 0.4 mph 9.2 mph 40 % 0.00 in 362.0 W/m2 CLR
18:00 93.0 °F 65.8 °F 29.84 in West 1.9 mph 9.2 mph 41 % 0.00 in 329.0 W/m2 CLR
18:05 93.0 °F 65.8 °F 29.84 in WNW 1.1 mph 8.1 mph 41 % 0.00 in 279.0 W/m2 CLR
18:10 92.9 °F 65.0 °F 29.84 in NW 2.3 mph 10.4 mph 40 % 0.00 in 253.0 W/m2 CLR
18:15 92.7 °F 65.6 °F 29.84 in Calm   10.4 mph 41 % 0.00 in 248.0 W/m2 CLR
18:20 92.2 °F 65.1 °F 29.84 in NW 0.6 mph 8.1 mph 41 % 0.00 in 251.0 W/m2 CLR
18:25 92.2 °F 65.1 °F 29.84 in WNW 2.4 mph 8.1 mph 41 % 0.00 in 207.0 W/m2 CLR
18:30 92.0 °F 64.9 °F 29.84 in NW 0.3 mph 8.1 mph 41 % 0.00 in 255.0 W/m2 CLR
18:35 92.2 °F 65.1 °F 29.84 in WNW 0.7 mph 8.1 mph 41 % 0.00 in 211.0 W/m2 CLR
18:38 92.0 °F 65.6 °F 29.84 in NNW 3.7 mph 6.9 mph 42 % 0.00 in 179.0 W/m2 CLR
18:43 91.9 °F 65.5 °F 29.84 in WNW 2.3 mph 8.1 mph 42 % 0.00 in 169.0 W/m2 CLR
18:48 91.7 °F 66.0 °F 29.84 in WNW 0.4 mph 8.1 mph 43 % 0.00 in 223.0 W/m2 CLR
18:53 91.8 °F 65.4 °F 29.84 in WNW 1.1 mph 8.1 mph 42 % 0.00 in 204.0 W/m2 CLR
18:58 91.9 °F 66.2 °F 29.84 in Calm   6.9 mph 43 % 0.00 in 188.0 W/m2 CLR
19:03 91.8 °F 65.4 °F 29.85 in WNW 2.0 mph 4.6 mph 42 % 0.00 in 169.0 W/m2 CLR
19:08 91.6 °F 65.9 °F 29.85 in West 0.3 mph 4.6 mph 43 % 0.00 in 113.0 W/m2 CLR
19:13 91.1 °F 66.2 °F 29.85 in Calm   6.9 mph 44 % 0.00 in 141.0 W/m2 CLR
19:18 90.9 °F 66.0 °F 29.85 in Calm   8.1 mph 44 % 0.00 in 134.0 W/m2 CLR
19:19 90.9 °F 66.0 °F 29.85 in Calm   8.1 mph 44 % 0.00 in 134.0 W/m2 CLR
19:24 90.6 °F 66.3 °F 29.85 in Calm   8.1 mph 45 % 0.00 in 120.0 W/m2 CLR
19:29 90.2 °F 66.6 °F 29.85 in Calm     46 % 0.00 in 109.0 W/m2 CLR
19:34 90.1 °F 66.5 °F 29.85 in Calm     46 % 0.00 in 76.0 W/m2 CLR
19:39 89.9 °F 67.0 °F 29.84 in Calm     47 % 0.00 in 54.0 W/m2 CLR
19:44 89.8 °F 66.9 °F 29.84 in Calm     47 % 0.00 in 46.0 W/m2 CLR
19:49 89.6 °F 66.7 °F 29.84 in Calm     47 % 0.00 in 42.0 W/m2 CLR
19:54 89.5 °F 67.2 °F 29.85 in Calm     48 % 0.00 in 35.0 W/m2 CLR
19:59 89.2 °F 66.3 °F 29.85 in Calm     47 % 0.00 in 25.0 W/m2 CLR
20:04 89.0 °F 66.8 °F 29.85 in Calm     48 % 0.00 in 18.0 W/m2 FEW
20:09 88.7 °F 67.1 °F 29.85 in Calm     49 % 0.00 in 12.0 W/m2 FEW
20:14 88.3 °F 67.9 °F 29.85 in Calm     51 % 0.00 in 11.0 W/m2 FEW
20:19 88.0 °F 68.2 °F 29.85 in Calm     52 % 0.00 in 7.0 W/m2 FEW
20:24 87.5 °F 68.3 °F 29.85 in Calm     53 % 0.00 in 5.0 W/m2 FEW
20:29 87.0 °F 68.3 °F 29.85 in Calm     54 % 0.00 in 0.0 W/m2 FEW
20:34 86.7 °F 68.6 °F 29.85 in Calm     55 % 0.00 in 0.0 W/m2 FEW
20:39 86.4 °F 68.8 °F 29.85 in Calm     56 % 0.00 in 0.0 W/m2 FEW
20:44 86.0 °F 68.5 °F 29.85 in Calm     56 % 0.00 in 0.0 W/m2 FEW
20:49 85.7 °F 68.7 °F 29.85 in Calm     57 % 0.00 in 0.0 W/m2 FEW
20:54 85.5 °F 69.0 °F 29.85 in Calm     58 % 0.00 in 0.0 W/m2 FEW
20:59 85.2 °F 68.8 °F 29.85 in Calm     58 % 0.00 in 0.0 W/m2 FEW
21:04 85.0 °F 69.1 °F 29.85 in Calm     59 % 0.00 in 0.0 W/m2 CLR
21:09 84.6 °F 68.7 °F 29.85 in Calm     59 % 0.00 in 0.0 W/m2 CLR
21:14 84.3 °F 68.9 °F 29.85 in Calm     60 % 0.00 in 0.0 W/m2 CLR
21:19 84.0 °F 68.6 °F 29.85 in Calm     60 % 0.00 in 0.0 W/m2 CLR
21:24 83.9 °F 69.0 °F 29.86 in Calm     61 % 0.00 in 0.0 W/m2 CLR
21:29 83.7 °F 68.8 °F 29.86 in Calm     61 % 0.00 in 0.0 W/m2 CLR
21:34 83.4 °F 69.0 °F 29.86 in Calm     62 % 0.00 in 0.0 W/m2 CLR
21:39 83.4 °F 69.0 °F 29.87 in Calm     62 % 0.00 in 0.0 W/m2 CLR
21:44 83.1 °F 69.2 °F 29.86 in Calm     63 % 0.00 in 0.0 W/m2 CLR
21:49 82.5 °F 69.1 °F 29.86 in Calm     64 % 0.00 in 0.0 W/m2 CLR
21:55 82.0 °F 69.1 °F 29.87 in Calm     65 % 0.00 in 0.0 W/m2 CLR
22:00 82.2 °F 68.8 °F 29.87 in Calm     64 % 0.00 in 0.0 W/m2 CLR
22:05 82.1 °F 68.7 °F 29.87 in Calm     64 % 0.00 in 0.0 W/m2 BKN
22:10 81.7 °F 68.3 °F 29.87 in Calm     64 % 0.00 in 0.0 W/m2 BKN
22:15 81.8 °F 68.4 °F 29.87 in Calm     64 % 0.00 in 0.0 W/m2 BKN
22:20 81.6 °F 68.7 °F 29.88 in Calm     65 % 0.00 in 0.0 W/m2 BKN
22:30 81.7 °F 69.2 °F 29.88 in Calm     66 % 0.00 in 0.0 W/m2 BKN
22:35 82.1 °F 69.2 °F 29.88 in Calm     65 % 0.00 in 0.0 W/m2 BKN
22:40 82.2 °F 68.8 °F 29.88 in Calm     64 % 0.00 in 0.0 W/m2 BKN
22:45 82.0 °F 69.1 °F 29.88 in Calm     65 % 0.00 in 0.0 W/m2 BKN
22:50 82.2 °F 69.3 °F 29.88 in Calm     65 % 0.00 in 0.0 W/m2 BKN
22:55 82.0 °F 69.1 °F 29.88 in Calm     65 % 0.00 in 0.0 W/m2 BKN
23:00 81.5 °F 69.0 °F 29.88 in Calm     66 % 0.00 in 0.0 W/m2 BKN
23:05 81.3 °F 69.3 °F 29.88 in Calm     67 % 0.00 in 0.0 W/m2 BKN
23:10 81.0 °F 69.0 °F 29.88 in Calm     67 % 0.00 in 0.0 W/m2 BKN
23:15 80.9 °F 68.9 °F 29.88 in Calm     67 % 0.00 in 0.0 W/m2 BKN
23:20 80.8 °F 68.8 °F 29.88 in Calm     67 % 0.00 in 0.0 W/m2 BKN
23:25 80.8 °F 68.4 °F 29.88 in Calm     66 % 0.00 in 0.0 W/m2 BKN
23:30 80.8 °F 68.4 °F 29.88 in Calm     66 % 0.00 in 0.0 W/m2 BKN
23:35 80.6 °F 68.2 °F 29.88 in Calm   1.2 mph 66 % 0.00 in 0.0 W/m2 BKN
23:40 80.4 °F 68.0 °F 29.88 in Calm   2.3 mph 66 % 0.00 in 0.0 W/m2 BKN
23:45 80.4 °F 68.0 °F 29.88 in Calm   2.3 mph 66 % 0.00 in 0.0 W/m2 BKN
23:50 80.5 °F 68.1 °F 29.88 in Calm     66 % 0.00 in 0.0 W/m2 BKN
23:55 80.3 °F 68.3 °F 29.87 in Calm     67 % 0.00 in 0.0 W/m2 BKN
Air Products Campus Weather
Compliments of Weather Underground - 3.5 mb